Location: Pilipovskiye Korichintsy
(49.1833°N, 27.4667°E)
Time: 01:33:56
(UTC+00:00)

USA 215 - Visible Passes

Search period start: 24 October 2020 00:00
Search period end: 03 November 2020 00:00
Orbit: 1102 x 1106 km, 123.0° (Epoch: 23 October)

Date Brightness Start Highest point End Pass type
(mag) Time Alt. Az. Time Alt. Az. Time Alt. Az.
24 Oct 3.5 16:30:07 21° E 16:34:31 55° NNE 16:40:51 10° WNW visible
24 Oct 3.2 18:17:28 77° SW 18:17:28 77° SW 18:23:58 10° WNW visible
24 Oct 5.5 20:04:50 16° W 20:04:50 16° W 20:06:23 10° WNW visible
25 Oct 3.8 15:45:53 10° ENE 15:52:04 46° N 15:58:14 10° WNW visible
25 Oct 3.2 17:33:06 54° E 17:34:39 73° NNE 17:41:11 10° NW visible
25 Oct 4.6 19:20:27 32° W 19:20:27 32° W 19:24:10 10° WNW visible
26 Oct 3.5 16:48:42 28° E 16:52:04 55° NNE 16:58:25 10° WNW visible
26 Oct 3.5 18:36:04 62° W 18:36:04 62° W 18:41:32 10° WNW visible
26 Oct 5.7 20:23:25 12° WNW 20:23:25 12° WNW 20:23:56 10° WNW visible
27 Oct 3.8 16:04:18 14° ENE 16:09:37 47° N 16:15:48 10° WNW visible
27 Oct 3.1 17:51:39 69° ENE 17:52:12 73° NNE 17:58:44 10° NW visible
27 Oct 5.0 19:39:00 25° WNW 19:39:00 25° WNW 19:41:44 10° WNW visible
28 Oct 3.9 15:21:04 10° ENE 15:27:13 45° N 15:33:23 10° WNW visible
28 Oct 3.5 17:07:15 37° ENE 17:09:38 55° NNE 17:15:59 10° WNW visible
28 Oct 4.0 18:54:36 47° WNW 18:54:36 47° WNW 18:59:05 10° WNW visible
29 Oct 3.8 16:22:49 20° ENE 16:27:10 47° N 16:33:22 10° WNW visible
29 Oct 3.3 18:10:11 71° N 18:10:11 71° N 18:16:18 10° NW visible
29 Oct 5.3 19:57:31 19° WNW 19:57:31 19° WNW 19:59:18 10° WNW visible
30 Oct 3.9 15:38:37 10° ENE 15:44:46 45° N 15:50:56 10° WNW visible
30 Oct 3.5 17:25:44 46° ENE 17:27:11 55° NNE 17:33:32 10° WNW visible
30 Oct 4.5 19:13:05 35° WNW 19:13:05 35° WNW 19:16:39 10° WNW visible
31 Oct 3.8 16:41:18 26° ENE 16:44:44 47° N 16:50:55 10° WNW visible
31 Oct 3.6 18:28:39 57° NW 18:28:39 57° NW 18:33:51 10° NW visible
31 Oct 5.6 20:16:00 14° WNW 20:16:00 14° WNW 20:16:52 10° WNW visible
01 Nov 3.9 15:56:51 13° ENE 16:02:20 45° N 16:08:29 10° WNW visible
01 Nov 3.4 17:44:12 54° NE 17:44:45 55° NNE 17:51:06 10° WNW visible
01 Nov 4.9 19:31:33 27° WNW 19:31:33 27° WNW 19:34:12 10° WNW visible
02 Nov 3.8 15:13:38 10° ENE 15:19:54 51° NNW 15:26:11 10° W visible
02 Nov 3.8 16:59:45 32° ENE 17:02:17 47° N 17:08:29 10° WNW visible
02 Nov 4.1 18:47:06 44° NW 18:47:06 44° NW 18:51:25 10° NW visible
